Regional Weather Roundup
Issued by NWS

Home | Current Version | Previous Version | Text Only | Print | Product List | Glossary Off
Versions: 1 2 3 4 5 6 7 8 9 10 11 12 13 14 15 16 17 18 19 20 21 22 23 24 25 26 27 28 29 30 31 32 33 34 35 36 37 38 39 40 41 42 43 44 45 46 47 48 49 50

000
ASUS43 KOAX 250710
RWRNE

WEATHER ROUNDUP FOR NEBRASKA
NATIONAL WEATHER SERVICE OMAHA NE
200 AM CDT FRI JUL 25 2014

NOTES: SATELLITE DATA IS BEING USED TO AUGMENT CLOUD COVER ABOVE
       12000 FEET.
       "FAIR" INDICATES FEW OR NO CLOUDS BELOW 12,000 FEET WITH NO
       SIGNIFICANT WEATHER AND/OR OBSTRUCTIONS TO VISIBILITY.

  * THESE STATIONS DO NOT REPORT WEATHER SUCH AS RAIN...SNOW OR FOG.

NEZ001>004-019>022-054>056-250800-
NEBRASKA PANHANDLE

CITY           SKY/WX    TMP DP  RH WIND       PRES   REMARKS
SCOTTSBLUFF    CLEAR     80  53  39 SW10      29.90S
ALLIANCE       CLEAR     73  54  51 SW13      29.87S
CHADRON        CLEAR     77  54  44 SW8       29.77R
KIMBALL        PTCLDY    70  54  56 SW10      29.99S
SIDNEY         CLEAR     72  55  55 SW12      29.96F
$$

NEZ057>060-069>072-079>082-250800-
SOUTHWEST NEBRASKA

CITY           SKY/WX    TMP DP  RH WIND       PRES   REMARKS
NORTH PLATTE   MOCLDY    76  59  55 NE7       29.81F
IMPERIAL       PTCLDY    72  58  61 W12       29.86F
LEXINGTON      CLOUDY    82  71  69 E9        29.84R
MCCOOK         PTCLDY    80  57  45 S13       29.82F
OGALLALA       CLEAR     61  58  88 W5        29.88R
$$

NEZ005>010-023>029-035>040-094-250800-
NORTH CENTRAL NEBRASKA

CITY           SKY/WX    TMP DP  RH WIND       PRES   REMARKS
VALENTINE      CLEAR     74  59  59 S9        29.76R
AINSWORTH      PTCLDY    69  66  89 S13       29.77F
BROKEN BOW     CLOUDY    81  70  69 SE8       29.82F
O`NEILL        MOCLDY    75  64  69 S15       29.76F
ORD            CLOUDY    73  67  81 SE10      29.80F
THEDFORD       MOCLDY    72  64  75 SE5       29.82F
$$

NEZ041-046>049-061>064-073>077-083>087-250800-
SOUTH CENTRAL NEBRASKA

CITY           SKY/WX    TMP DP  RH WIND       PRES   REMARKS
GRAND ISLAND   CLOUDY    76  68  76 SE10      29.86F
AURORA         CLOUDY    75  69  80 SE9       29.88F
HASTINGS       CLOUDY    80  66  62 S9        29.88S
HEBRON         CLOUDY    78  65  65 S10G20    29.87R
HOLDREGE       CLOUDY    82  69  65 S14       29.84S
KEARNEY *      CLOUDY    77  70  78 E12       29.87F
YORK           CLOUDY    73  68  83 SE7       29.90F
$$

NEZ011>018-030>034-042>045-250800-
NORTHEAST NEBRASKA

CITY           SKY/WX    TMP DP  RH WIND       PRES   REMARKS
NORFOLK        CLOUDY    73  66  78 S21       29.78F
ALBION         CLOUDY    71  64  78 SE7       29.80F
BLAIR          LGT RAIN  72  62  70 S23       29.89F
COLUMBUS *     CLOUDY    72  66  83 S21G28    29.82F
FREMONT        TSTM      74  69  85 S12       29.89F
TEKAMAH        CLOUDY    73  63  70 S15       29.82F
WAYNE          CLOUDY    74  67  79 S18G25    29.75S
$$

NEZ050>053-065>068-078-088>093-250800-
SOUTHEAST NEBRASKA

CITY           SKY/WX    TMP DP  RH WIND       PRES   REMARKS
LINCOLN        TSTM      74  67  78 N15G23    29.94R
OMAHA EPPLEY   CLOUDY    75  60  59 W10G17    29.93R
BEATRICE       CLOUDY    75  66  72 S13G21    29.87F
FALLS CITY     MOCLDY    73  60  63 S16       29.86F
NEBRASKA CITY  CLOUDY    71  59  66 S8        29.88S
PLATTSMOUTH    CLOUDY    72  59  62 W7        29.92R
$$

NEZ044-045-051>053-067-250800-
OMAHA AREA

CITY           SKY/WX    TMP DP  RH WIND       PRES   REMARKS
OMAHA EPPLEY   CLOUDY    75  60  59 W10G17    29.93R
BLAIR          LGT RAIN  72  62  70 S23       29.89F
FREMONT        TSTM      74  69  85 S12       29.89F
MILLARD        CLOUDY    75  63  66 W9        29.94R
OFFUTT AFB     CLOUDY    73  62  68 W6        29.92R
PLATTSMOUTH    CLOUDY    72  59  62 W7        29.92R
WAHOO          RAIN      74  67  77 W9        29.93F
$$


USA.gov is the U.S. government's official web portal to all federal, state and local government web resources and services.